[[{"header":{"parameterUnit":"m.s-1","parameterCategory":1,"la1":30.2991,"la2":30.254,"lo1":-89.0895,"lo2":-89.0444,"dy":0.0017,"dx":0.0017,"nx":28,"ny":28,"refTime":"2025-08-25T21:00:00:Z","depth":0,"parameterNumber":2,"parameterNumberName":"U-component_of_WINDS"},"data":[0,0,0,0,0,0,0,0,0,0,0,0,0,0,0,0,0,0,0,0,0,0,0,0,0,0,0,0,0,0,0,0,0,0,0,0,0,0,0,0,0,0,0,0,0,0,0,0,0,0,0,0,0,0,0,0,0,0,-4.1517,-4.1517,0,-4.1539,-4.154,-4.154,-4.1439,-4.1436,-4.1433,-4.1431,-4.1455,-4.1458,-4.1462,0,0,0,0,0,0,0,0,0,0,0,0,0,-4.139,-4.1393,-4.1517,-4.1517,-4.1518,-4.1539,-4.154,-4.154,-4.144,-4.1436,-4.1433,-4.1429,-4.1454,-4.1458,-4.1462,0,0,0,0,0,0,0,0,0,0,0,0,0,-4.1432,-4.1394,-4.1517,-4.147,-4.1466,-4.1539,-4.154,-4.154,-4.144,-4.1436,-4.1432,-4.1427,-4.1453,-4.1458,-4.1463,-4.1582,0,0,-4.1478,-4.148,0,0,0,0,0,0,0,0,-4.143,-4.1437,-4.1477,-4.1474,-4.1469,-4.1482,-4.1504,-4.1554,-4.1442,-4.145,-4.143,-4.1425,-4.1468,-4.1471,-4.1485,-4.1584,-4.1585,-4.1479,-4.1482,-4.1484,-4.1485,0,0,0,0,0,0,0,-4.1427,-4.1436,-4.1526,-4.1478,-4.1473,-4.1449,-4.145,-4.1513,-4.1484,-4.1449,-4.1442,-4.1446,-4.1465,-4.1481,-4.1485,-4.1585,-4.1479,-4.1483,-4.1486,-4.1488,-4.1784,-4.1789,0,0,0,0,0,0,-4.143,-4.1434,-4.1525,-4.1527,-4.1438,-4.1455,-4.1456,-4.1482,-4.1483,-4.1478,-4.145,-4.1441,-4.1474,-4.1479,-4.1486,-4.1627,-4.1484,-4.1489,-4.1492,-4.178,-4.1786,-4.1791,0,0,0,0,0,0,-4.1428,-4.1439,-4.1524,-4.1478,-4.1487,-4.1462,-4.1492,-4.1485,-4.1501,-4.1483,-4.1477,-4.1471,-4.1471,-4.1478,-4.1559,-4.1626,-4.1491,-4.1496,-4.1774,-4.1781,-4.1788,-4.191,0,0,0,0,0,0,-4.1425,-4.1439,-4.1484,-4.148,-4.149,-4.1597,-4.1496,-4.1489,-4.151,-4.1499,-4.1501,-4.1498,-4.1468,-4.1552,-4.1564,-4.1631,-4.15,-4.1768,-4.1777,-4.1786,-4.19,-4.1921,-4.1938,0,0,0,0,0,-4.1421,-4.1517,-4.1487,-4.1498,-4.1545,-4.1601,-4.1607,-4.157,-4.1515,-4.156,-4.1549,-4.1498,-4.1617,-4.1561,-4.1574,-4.1643,-4.1764,-4.1775,-4.1785,-4.1891,-4.1917,-4.1938,0,0,0,0,0,0,-4.153,-4.1516,-4.1482,-4.158,-4.1593,-4.1584,-4.164,-4.1598,-4.1627,-4.1616,-4.1569,-4.1571,-4.166,-4.166,-4.1598,-4.176,-4.1681,-4.1695,-4.1757,-4.1781,-4.18,-4.1798,-4.1504,0,0,0,0,0,-4.1565,-4.1612,-4.1597,-4.1685,-4.1693,-4.1666,-4.1689,-4.166,-4.1671,-4.1676,-4.1671,-4.1684,-4.1725,-4.1753,-4.1789,-4.1899,-4.1899,-4.1953,-4.1972,-4.1988,-4.2001,-4.2061,-4.2085,-4.1826,-4.1826,-4.1826,0,0,-4.1639,-4.1637,-4.1669,-4.1707,-4.1713,-4.1763,-4.1671,-4.1727,-4.1764,-4.1685,-4.1761,-4.1758,-4.177,-4.1867,-4.1909,-4.1869,-4.2072,-4.2002,-4.2015,-4.2019,-4.2074,-4.2099,-4.2121,-4.1834,-4.1832,-4.1831,0,0,-4.1799,-4.1802,-4.1876,-4.1885,-4.1896,-4.1877,-4.1895,-4.1894,-4.1888,-4.1964,-4.1906,-4.1949,-4.202,-4.2032,-4.2047,-4.2213,-4.2168,-4.2226,-4.2327,-4.2386,-4.2406,-4.2424,-4.2485,-4.2507,-4.2239,-4.2239,-4.224,0,-4.189,-4.1962,-4.192,-4.1981,-4.2,-4.193,-4.2006,-4.2016,-4.2039,-4.2054,-4.2008,-4.2097,-4.21,-4.2199,-4.224,-4.2254,-4.2274,-4.2226,-4.2406,-4.2424,-4.244,-4.2497,-4.252,-4.2247,-4.2246,-4.2245,-4.2244,0,-4.2074,-4.2125,-4.2184,-4.2207,-4.2232,-4.23,-4.227,-4.2301,-4.227,-4.2256,-4.2335,-4.2337,-4.2373,-4.2394,-4.2364,-4.249,-4.2465,-4.2414,-4.2333,-4.2472,-4.2526,-4.2547,-4.2257,-4.2254,-4.2252,-4.225,0,0,-4.2303,-4.2303,-4.2326,-4.2336,-4.2343,-4.2382,-4.2448,-4.2483,-4.2511,-4.2529,-4.2584,-4.2646,-4.2599,-4.2616,-4.2587,-4.2639,-4.2772,-4.2581,-4.2581,-4.2618,-4.2913,-4.2952,-4.2978,-4.2742,-4.2746,-4.2749,-4.2912,0,-4.2461,-4.2572,-4.2537,-4.265,-4.2697,-4.2632,-4.2689,-4.2701,-4.269,-4.273,-4.2718,-4.2763,-4.2697,-4.2708,-4.2756,-4.2746,-4.2831,-4.2733,-4.2793,-4.2796,-4.2793,-4.3005,-4.3047,-4.3201,-4.2932,-4.2936,-4.2938,0,-4.266,-4.2686,-4.2804,-4.2804,-4.2823,-4.2875,-4.2905,-4.2943,-4.2955,-4.2944,-4.2964,-4.2925,-4.299,-4.291,-4.3,-4.2934,-4.2957,-4.2956,-4.2961,-4.2966,-4.2876,-4.3017,-4.3249,-4.3272,-4.297,-4.2968,-4.2966,0,-4.2817,-4.2882,-4.2961,-4.2972,-4.2974,-4.3012,-4.3015,-4.3023,-4.3047,-4.3073,-4.3088,-4.3122,-4.3142,-4.3169,-4.3141,-4.3084,-4.3236,-4.3153,-4.323,-4.3231,-4.3265,-4.3264,-4.3505,-4.3279,-4.3278,-4.3278,-4.3277,0,-4.2998,-4.3073,-4.3032,-4.3081,-4.3163,-4.3122,-4.3205,-4.3201,-4.3209,-4.3256,-4.3202,-4.3248,-4.3207,-4.325,-4.3228,-4.3307,-4.3316,-4.331,-4.3303,-4.3315,-4.3316,-4.333,-4.3319,-4.3284,-4.3283,-4.3281,-4.328,0,-4.3188,-4.3163,-4.3245,-4.3241,-4.3241,-4.3303,-4.3299,-4.3345,-4.3331,-4.3392,-4.3404,-4.3382,-4.343,-4.3404,-4.3453,-4.3438,-4.3541,-4.352,-4.3537,-4.3532,-4.3612,-4.3605,-4.3871,-4.3904,-4.3656,-4.3658,-4.366,0,-4.3305,-4.3361,-4.3363,-4.3391,-4.3397,-4.3443,-4.3467,-4.3429,-4.3457,-4.3476,-4.352,-4.3563,-4.3595,-4.3675,-4.3664,-4.3702,-4.3681,-4.3772,-4.3687,-4.3698,-4.3684,-4.3682,-4.3688,-4.3789,-4.3792,-4.3795,-4.3796,0,-4.3516,-4.3502,-4.3538,-4.3571,-4.3601,-4.3626,-4.3645,-4.3671,-4.3634,-4.3668,-4.3716,-4.3742,-4.3792,-4.3836,-4.3869,-4.3872,-4.383,-4.3823,-4.3843,-4.3857,-4.3865,-4.3863,-4.3585,-4.3818,-4.3815,-4.3814,-4.3813,-4.3812,-4.3674,-4.3722,-4.3731,-4.3774,-4.3784,-4.3804,-4.3847,-4.3839,-4.3878,-4.3916,-4.3891,-4.3949,-4.3961,-4.4,-4.401,-4.4055,-4.4019,-4.4048,-4.4055,-4.4063,-4.4075,-4.3857,-4.4061,-4.406,-4.4059,-4.4059,-4.4058,0,-4.3884,-4.3887,-4.3926,-4.3956,-4.399,-4.3946,-4.3965,-4.3997,-4.4048,-4.4063,-4.4096,-4.4152,-4.4195,-4.4188,-4.4227,-4.4264,-4.4246,-4.4276,-4.4273,-4.4276,-4.4104,-4.4083,-4.4291,-4.4291,-4.4291,-4.4291,-4.429,-4.429,-4.3997,-4.4075,-4.4062,-4.4146,-4.4148,-4.4203,-4.4218,-4.4237,-4.4249,-4.4314,-4.4349,-4.4344,-4.435,-4.439,-4.4427,-4.4424,-4.4442,-4.448,-4.447,-4.431,-4.4287,-4.4265,-4.4246,-4.4484,-4.4484,-4.4638,-4.4639,-4.464]},{"header":{"parameterUnit":"m.s-1","parameterCategory":1,"la1":30.2991,"la2":30.254,"lo1":-89.0895,"lo2":-89.0444,"dy":0.0017,"dx":0.0017,"nx":28,"ny":28,"refTime":"2025-08-25T21:00:00:Z","depth":0,"parameterNumber":3,"parameterNumberName":"V-component_of_WINDS"},"data":[0,0,0,0,0,0,0,0,0,0,0,0,0,0,0,0,0,0,0,0,0,0,0,0,0,0,0,0,0,0,0,0,0,0,0,0,0,0,0,0,0,0,0,0,0,0,0,0,0,0,0,0,0,0,0,0,0,0,-0.9158,-0.9158,0,-0.9182,-0.9183,-0.9183,-0.9184,-0.9183,-0.9183,-0.9183,-0.9208,-0.9209,-0.921,0,0,0,0,0,0,0,0,0,0,0,0,0,-0.9111,-0.9111,-0.9158,-0.9158,-0.9158,-0.9182,-0.9183,-0.9183,-0.9184,-0.9183,-0.9183,-0.9183,-0.9208,-0.9209,-0.921,0,0,0,0,0,0,0,0,0,0,0,0,0,-0.9133,-0.9112,-0.9158,-0.9162,-0.9162,-0.9182,-0.9183,-0.9183,-0.9184,-0.9183,-0.9183,-0.9183,-0.9207,-0.9209,-0.921,-0.9227,0,0,-0.9214,-0.9215,0,0,0,0,0,0,0,0,-0.9131,-0.9134,-0.9161,-0.9161,-0.9162,-0.9179,-0.9175,-0.9198,-0.9184,-0.9176,-0.9183,-0.9182,-0.9199,-0.9201,-0.9206,-0.9229,-0.923,-0.9214,-0.9215,-0.9216,-0.9216,0,0,0,0,0,0,0,-0.913,-0.9133,-0.9167,-0.9161,-0.9162,-0.9162,-0.9165,-0.9179,-0.9189,-0.9176,-0.9176,-0.9179,-0.9199,-0.9205,-0.9207,-0.923,-0.9214,-0.9216,-0.9216,-0.9217,-0.9267,-0.9267,0,0,0,0,0,0,-0.9128,-0.9132,-0.9167,-0.9168,-0.9145,-0.9163,-0.9166,-0.9174,-0.9189,-0.9191,-0.918,-0.9179,-0.9203,-0.9205,-0.9208,-0.9229,-0.9216,-0.9217,-0.9218,-0.9266,-0.9267,-0.9267,0,0,0,0,0,0,-0.9127,-0.9131,-0.9166,-0.915,-0.9155,-0.9164,-0.9174,-0.9175,-0.9181,-0.9192,-0.9193,-0.9184,-0.9203,-0.9206,-0.9222,-0.923,-0.9218,-0.9219,-0.9266,-0.9266,-0.9267,-0.9271,0,0,0,0,0,0,-0.9125,-0.913,-0.9138,-0.915,-0.9155,-0.918,-0.9174,-0.9176,-0.9184,-0.9183,-0.9196,-0.9198,-0.9203,-0.922,-0.9224,-0.9231,-0.922,-0.9265,-0.9266,-0.9267,-0.927,-0.9272,-0.9273,0,0,0,0,0,-0.9124,-0.9138,-0.9138,-0.9142,-0.9165,-0.9181,-0.9183,-0.9188,-0.9184,-0.9191,-0.9198,-0.9198,-0.9228,-0.9222,-0.9226,-0.9234,-0.9265,-0.9266,-0.9267,-0.927,-0.9272,-0.9273,0,0,0,0,0,0,-0.9126,-0.914,-0.914,-0.9159,-0.9168,-0.9181,-0.919,-0.919,-0.9201,-0.9201,-0.9206,-0.9209,-0.9225,-0.9231,-0.9224,-0.9251,-0.9246,-0.9248,-0.9247,-0.9249,-0.925,-0.9248,-0.9221,0,0,0,0,0,-0.9129,-0.9141,-0.9152,-0.9168,-0.9172,-0.918,-0.9187,-0.919,-0.92,-0.9204,-0.9212,-0.9222,-0.9234,-0.9241,-0.9253,-0.9271,-0.9273,-0.9278,-0.928,-0.9281,-0.9283,-0.9292,-0.9294,-0.9271,-0.9271,-0.9271,0,0,-0.9135,-0.9144,-0.9151,-0.9168,-0.9176,-0.9188,-0.9184,-0.9197,-0.9205,-0.9206,-0.9222,-0.9228,-0.9239,-0.9257,-0.9264,-0.9262,-0.9289,-0.9282,-0.9283,-0.9284,-0.9293,-0.9295,-0.9297,-0.9271,-0.9271,-0.9271,0,0,-0.9152,-0.916,-0.9173,-0.9181,-0.9192,-0.9197,-0.92,-0.9212,-0.9216,-0.9232,-0.9233,-0.9243,-0.9263,-0.9271,-0.9277,-0.9295,-0.9296,-0.9299,-0.9306,-0.9315,-0.9317,-0.9319,-0.9325,-0.9327,-0.93,-0.93,-0.93,0,-0.9158,-0.9176,-0.918,-0.9193,-0.92,-0.9201,-0.9214,-0.9221,-0.9236,-0.9241,-0.9238,-0.9263,-0.927,-0.9289,-0.9293,-0.9298,-0.9302,-0.9298,-0.9316,-0.9318,-0.932,-0.9326,-0.9328,-0.9301,-0.9301,-0.9301,-0.9301,0,-0.9182,-0.9195,-0.9204,-0.9218,-0.9226,-0.9239,-0.9245,-0.9253,-0.9254,-0.9259,-0.9275,-0.9284,-0.9296,-0.9301,-0.9303,-0.9319,-0.9317,-0.9315,-0.931,-0.9322,-0.9328,-0.933,-0.9301,-0.9301,-0.9301,-0.9301,0,0,-0.9203,-0.9217,-0.9221,-0.9227,-0.9239,-0.9249,-0.9261,-0.9273,-0.928,-0.9289,-0.93,-0.9316,-0.9314,-0.9321,-0.9324,-0.9331,-0.9344,-0.9328,-0.9329,-0.9331,-0.9363,-0.9364,-0.9367,-0.9344,-0.9345,-0.9345,-0.9362,0,-0.9221,-0.9243,-0.9247,-0.9266,-0.9277,-0.9278,-0.9288,-0.9297,-0.9301,-0.9311,-0.9316,-0.9327,-0.9324,-0.9328,-0.9336,-0.9341,-0.9351,-0.934,-0.9354,-0.9354,-0.9351,-0.937,-0.9372,-0.9387,-0.9364,-0.9364,-0.9365,0,-0.9245,-0.9255,-0.9276,-0.9285,-0.929,-0.93,-0.9311,-0.932,-0.9329,-0.9332,-0.9339,-0.9341,-0.9353,-0.9347,-0.9363,-0.9356,-0.9362,-0.9365,-0.9366,-0.9367,-0.936,-0.9372,-0.9392,-0.9394,-0.9368,-0.9368,-0.9368,0,-0.9257,-0.9276,-0.929,-0.9295,-0.9307,-0.9314,-0.9319,-0.9327,-0.9334,-0.9344,-0.9348,-0.9359,-0.9365,-0.9373,-0.9376,-0.9372,-0.9393,-0.9387,-0.9395,-0.9395,-0.94,-0.94,-0.9421,-0.9403,-0.9403,-0.9403,-0.9403,0,-0.9277,-0.929,-0.9296,-0.9305,-0.9319,-0.9322,-0.9336,-0.934,-0.9348,-0.9357,-0.9358,-0.9367,-0.9371,-0.9381,-0.9384,-0.9397,-0.9399,-0.9402,-0.9402,-0.9402,-0.9402,-0.9406,-0.9405,-0.9404,-0.9404,-0.9404,-0.9404,0,-0.9294,-0.9299,-0.9314,-0.9324,-0.9326,-0.9336,-0.9344,-0.9352,-0.9356,-0.9368,-0.9371,-0.9377,-0.9388,-0.9392,-0.9406,-0.9408,-0.9423,-0.9423,-0.942,-0.942,-0.9428,-0.9427,-0.9453,-0.9457,-0.9437,-0.9437,-0.9437,0,-0.9307,-0.9316,-0.9326,-0.9333,-0.9338,-0.9348,-0.9355,-0.9358,-0.9365,-0.9375,-0.9382,-0.9393,-0.9402,-0.9419,-0.9425,-0.9435,-0.9435,-0.9443,-0.9436,-0.9435,-0.9435,-0.9434,-0.9435,-0.9445,-0.9445,-0.9445,-0.9445,0,-0.9328,-0.933,-0.9339,-0.935,-0.9357,-0.9365,-0.9373,-0.9378,-0.9383,-0.939,-0.9401,-0.9408,-0.9421,-0.9432,-0.9442,-0.9447,-0.9447,-0.9447,-0.9449,-0.9449,-0.9447,-0.9448,-0.9423,-0.9447,-0.9446,-0.9446,-0.9446,-0.9446,-0.9343,-0.9351,-0.9359,-0.937,-0.9376,-0.9383,-0.9391,-0.9395,-0.9405,-0.9416,-0.9417,-0.9428,-0.9436,-0.945,-0.9455,-0.9464,-0.9461,-0.9465,-0.9466,-0.9467,-0.9467,-0.9445,-0.9466,-0.9466,-0.9465,-0.9465,-0.9465,0,-0.9365,-0.937,-0.9379,-0.939,-0.9398,-0.9396,-0.9404,-0.9411,-0.9421,-0.9428,-0.9437,-0.9449,-0.9459,-0.9465,-0.9474,-0.948,-0.948,-0.9483,-0.9483,-0.9484,-0.9469,-0.9466,-0.9483,-0.9483,-0.9483,-0.9483,-0.9483,-0.9483,-0.9377,-0.939,-0.9393,-0.9409,-0.9413,-0.9425,-0.9429,-0.9436,-0.9441,-0.9455,-0.9463,-0.9466,-0.9473,-0.9483,-0.9492,-0.9493,-0.9496,-0.9499,-0.95,-0.9486,-0.9485,-0.9483,-0.948,-0.95,-0.95,-0.9514,-0.9514,-0.9515]}]]